Flag for Germany Weather past 2 weeks in Rüsselsheim, Hesse, Germany

Now
67 °F

Overcast.


Feels Like: 67 °F
Forecast: 49 / 71 °F
Wind: 1 mph from East

Location: Wiesbaden Airport

Current Time: May 22, 2015 at 6:30:49 PM

Latest Report: May 22, 2015 at 5:58 PM


Visibility: N/A

Pressure: 30.21 "Hg

Humidity: 41%

Dew point: 42 °F

Location of RüsselsheimLocation

Historic Weather in Rüsselsheim — Graph

°F

Rüsselsheim temperature yesterday

Maximum temperature yesterday: 64 °F (at 6:58 PM)
Minimum temperature yesterday: 41 °F (at 3:58 AM)
Average temperature yesterday: 53 °F

Past Weeks' High & Low Weather Summary

 TemperatureHumidityPressure
High82 °F (May 12, 3:58 PM)98% (May 10, 3:58 AM)30.34 "Hg (May 10, 3:58 AM)
Low40 °F (May 22, 5:58 AM)33% (May 18, 2:58 PM)29.67 "Hg (May 19, 1:58 AM)
Average59 °F62%30.07 "Hg
* Reported May 7 4:58 PM — May 22 4:58 PM, Rüsselsheim, Weather by CustomWeather, © 2015

Note: Actual official high and low records may vary slightly from our data, if they occured in-between our weather recording intervals... More about our weather records

Advertising

Rüsselsheim weather history for previous 24 hours

 ConditionsComfort  
Time TempWeatherWind HumidityBarometerVisibility
4:58 PM
Fri, May 22
67 °FOvercast.2 mph42%30.22 "HgN/A
3:58 PM66 °FPartly sunny.1 mph43%30.24 "HgN/A
3:03 PM66 °FPartly sunny.No wind37%30.24 "HgN/A
2:58 PM67 °FScattered clouds.No wind37%30.25 "HgN/A
1:58 PM68 °FSunny.No wind35%30.27 "HgN/A
12:58 PM65 °FSunny.6 mph41%30.29 "HgN/A
11:58 AM63 °FSunny.3 mph41%30.32 "HgN/A
10:58 AM62 °FSunny.1 mph47%30.33 "HgN/A
9:58 AM58 °FSunny.2 mph54%30.34 "Hg5 mi
8:58 AM54 °FSunny.2 mph63%30.34 "HgN/A
7:58 AM50 °FPassing clouds.No wind71%30.34 "HgN/A
6:58 AM44 °FSunny.2 mph89%30.34 "HgN/A
6:00 AM41 °FMostly cloudy.2 mph93%30.32 "HgN/A
5:58 AM40 °FLight rain. Mostly cloudy.2 mph90%30.33 "HgN/A
4:58 AM43 °FPassing clouds.No wind87%30.34 "HgN/A
3:58 AM43 °FClear.No wind81%30.34 "HgN/A
2:58 AM44 °FClear.2 mph80%30.34 "HgN/A
1:58 AM45 °FClear.2 mph76%30.34 "HgN/A
12:58 AM46 °FClear.2 mph71%30.34 "HgN/A
11:58 PM
Thu, May 21
47 °FClear.3 mph72%30.34 "HgN/A
10:58 PM48 °FClear.2 mph71%30.33 "HgN/A
9:58 PM52 °FSunny.3 mph62%30.32 "HgN/A
8:58 PM59 °FSunny.3 mph45%30.30 "HgN/A
7:58 PM63 °FScattered clouds.5 mph39%30.29 "HgN/A
6:58 PM64 °FPartly sunny.8 mph35%30.29 "HgN/A
Weather by CustomWeather, © 2015

See weather overviewHow to use our weather pages